AirNav   Phillips 66 Aviation Fuel
 
 1562 users online  

X49 South Lakeland Airport
Lakeland, Florida, USA

GOING TO LAKELAND?


FAA INFORMATION EFFECTIVE 16 AUGUST 2018

Location

FAA Identifier: X49
Lat/Long: 27-56-00.0890N / 082-02-38.3060W
27-56.001483N / 082-02.638433W
27.9333581 / -82.0439739
(estimated)
Elevation: 110 ft. / 34 m (estimated)
Variation: 02W (1985)
From city: 1 mile S of LAKELAND, FL
Time zone: UTC -4 (UTC -5 during Standard Time)
Zip code: 33860

Airport Operations

Airport use: Open to the public
Activation date: 08/1965
Control tower: no
ARTCC: MIAMI CENTER
FSS: SAINT PETERSBURG FLIGHT SERVICE STATION
NOTAMs facility: PIE (NOTAM-D service available)
Attendance: SAT-SUN 0700-DUSK
Wind indicator: yes
Segmented circle: yes

Airport Communications

CTAF: 122.9
WX AWOS-3PT at LAL (4 nm N): 118.025 (863-834-2030)
WX AWOS-3 at PCM (7 nm NW): 120.025 (813-764-8259)
WX AWOS-3 at BOW (14 nm E): 123.775 (863-533-9004)
WX AWOS-3 at VDF (17 nm W): 121.125 (813-630-0924)
WX ASOS at GIF (17 nm NE): 133.675 (863-956-2097)
WX ASOS at ZPH (19 nm N): 118.975 (813-780-0031)

Nearby radio navigation aids

VOR radial/distance  VOR name  Freq  Var
LALr206/3.5LAKELAND VORTAC116.0001E
PIEr092/34.0ST PETERSBURG VORTAC116.4005W

Airport Services

Fuel available: UL94
Parking: hangars
Airframe service: MINOR
Powerplant service: MINOR
Bottled oxygen: NONE
Bulk oxygen: NONE

Runway Information

Runway 14/32

Dimensions: 2412 x 100 ft. / 735 x 30 m
Surface: turf, in good condition
TURF RYS MAY HOLD WATER AFTER RAIN.
Runway edge markings: 14/32 WHITE PAILS OUTLINE LANDING STRIP.
Gradient: ESTIMATED
RUNWAY 14  RUNWAY 32
Gradient: 0.1%0.1%
Traffic pattern: rightleft
Obstructions: 57 ft. tree, 1135 ft. from runway, 90 ft. right of centerline, 20:1 slope to clear42 ft. tree, 838 ft. from runway, 85 ft. right of centerline, 20:1 slope to clear

Airport Ownership and Management from official FAA records

Ownership: Privately-owned
Owner: SOUTH LAKELAND AIRPORT, INC
PO BOX 1409
MULBERRY, FL 33860-1409
Phone 863-701-0000
CONTACT PERSON: JAY KURTZ 863-701-0000
Manager: JAY KURTZ
SOUTH LAKELAND AIRPORT, 7500 CORONE ROAD
MULBERRY, FL 33860-8307
Phone 863-701-0000

Airport Operational Statistics

Aircraft based on the field: 70
Single engine airplanes: 60
Multi engine airplanes: 3
Helicopters: 1
Ultralights: 5
Military aircraft: 1
    
Aircraft operations: avg 33/day *
83% local general aviation
17% transient general aviation
* for 12-month period ending 14 December 2017

Additional Remarks

RY 14/32 ROAD 97 FT TO 100 FT SOUTH OF CNTRLN AT FULL LEN OF RY
RY 14/32 ENDS NOT MARKED.
ARPT HAS NO NIGHT TIME OPERATIONS.
ULTRALIGHT ACTIVITY ON AND INVOF ARPT.
NO PPC OR GYRO OPNS WO WRITTEN PERMISSION FROM ARPT OWNER.
THLDS MKD WITH 3 WHITE PAILS PERPENDICULAR TO CNTRLN.
ARPT IS EMERG EVAC SITE. WATCH FOR EMERG ACFT AND VEHICLES ON RY AND INVOF ARPT.
NO SKYDIVING, PWR PARACHUTE OR GYRO OPS WO WRITTEN PMSN FROM ARPT OWNER.

Instrument Procedures

There are no published instrument procedures at X49.

Some nearby airports with instrument procedures:

KLAL - Lakeland Linder Regional Airport (4 nm N)
KPCM - Plant City Airport (7 nm NW)
KBOW - Bartow Municipal Airport (14 nm E)
KVDF - Tampa Executive Airport (17 nm W)
KGIF - Winter Haven's Gilbert Airport (17 nm NE)
KZPH - Zephyrhills Municipal Airport (19 nm N)
 
Loc | Ops | Rwys | IFR | FBO | Links
Com | Nav | Svcs | Stats | Notes


 
Area around X49 (South Lakeland Airport)
 
Road maps at: MapQuest Bing Google
 
Aerial photo
WARNING: Photo may not be current or correct
Aerial photo of X49 (South Lakeland Airport)
Photo by by Charles Proctor
Photo taken 11-Jan-2010
looking SW.

Do you have a better or more recent aerial photo of South Lakeland Airport that you would like to share? If so, please send us your photo.

 
Sectional chart

 
Airport distance calculator
Flying to South Lakeland Airport? Find the distance to fly.

From to X49

Sunrise and sunset
Times for 16-Aug-2018
 Local
(UTC-4)
 Zulu
(UTC)
Morning civil twilight06:3510:35
Sunrise07:0011:00
Sunset20:0500:05
Evening civil twilight20:3000:30

Current date and time
Zulu (UTC)  16-Aug-2018 16:30:45
Local (UTC-4)  16-Aug-2018 12:30:45
 
METAR
KLAL 
2nm NE 
161550Z 15006KT 10SM BKN030 31/23 A3018
KPCM 
8nm NW 
161615Z AUTO 12007KT 10SM SCT035 SCT043 SCT050 33/23 A3020 RMK AO2
KBOW 
15nm E 
161555Z 12008KT 10SM SCT025 31/23 A3018
KVDF 
17nm W 
161615Z AUTO 12003KT 10SM BKN031 BKN038 31/24 A3018 RMK AO2
KGIF 
18nm NE 
161553Z AUTO 13005KT 10SM CLR 31/23 A3019 RMK AO2 SLP220 T03110228
KZPH 
19nm N 
161615Z AUTO 17006KT 10SM SCT034 SCT041 32/23 A3019 RMK AO2 T03170234
TAF
KLAL 
2nm NE 
161137Z 1612/1712 VRB03KT P6SM FEW070 SCT250 FM161400 13006KT P6SM SCT025 SCT250 FM161800 13006KT P6SM VCTS SCT035CB BKN060 BKN250 FM170100 VRB03KT P6SM FEW040 SCT120 BKN250
NOTAMs
Click for the latest NOTAMs
NOTAMs are issued by the DoD/FAA and will open in a separate window not controlled by AirNav.

 

 
 

Aviation Businesses, Services, and Facilities

  
 Business Name 
 
 Contact 
 
 Services / Description 
 
Distance
 
Comments
  
South Lakeland Airport 863-701-0000
863-602-9606
[web site]
[email]
Aircraft parking (ramp or tiedown), Hangars, Hangar leasing / sales, Flight training, Aircraft maintenance, Skydiving, Aircraft parts, Aviation accessories, ...

More info about South Lakeland Airport
on airport  
   1 read write
 

Would you like to see your business listed on this page?

 If your business provides an interesting product or service to pilots, flight crews, aircraft, or users of the South Lakeland Airport, you should consider listing it here.  To start the listing process, click on the button below
 
Add a business
 

Other Pages about South Lakeland Airport

Update a link
 
Copyright © AirNav, LLC. All rights reserved. Privacy Policy  Contact